Flag for Saudi Arabia Weather past 2 weeks in Jeddah, Saudi Arabia

Now
91 °F

Sunny.


Feels Like: 99 °F
Forecast: 81 / 94 °F
Wind: 14 mph from West

Location: Jeddah King Abdul Aziz International Airport

Current Time: Oct 1, 2014 at 3:56:52 PM

Latest Report: Oct 1, 2014 at 3:00 PM


Visibility: 10 mi

Pressure: 29.71 "Hg

Humidity: 52%

Dew point: 72 °F

Location of JeddahLocation

Historic Weather in Jeddah — Graph

°F

Jeddah temperature yesterday

Maximum temperature yesterday: 100 °F (at 12:00 PM)
Minimum temperature yesterday: 84 °F (at 4:00 AM)
Average temperature yesterday: 90 °F

Past Weeks' High & Low Weather Summary

 TemperatureHumidityPressure
High100 °F (Sep 18, 1:00 PM)94% (Sep 25, 7:00 AM)29.80 "Hg (Sep 25, 7:00 AM)
Low81 °F (Sep 21, 5:00 AM)29% (Sep 17, 12:00 PM)29.65 "Hg (Sep 16, 5:00 PM)
Average89 °F59%29.72 "Hg
* Reported Sep 16 2:00 PM — Oct 1 2:00 PM, Jeddah, Weather by CustomWeather, © 2014

Note: Actual official high and low records may vary slightly from our data, if they occured in-between our weather recording intervals... More about our weather records

Advertising

Jeddah weather history for previous 24 hours

 ConditionsComfort  
Time TempWeatherWind HumidityBarometerVisibility
2:00 PM
Oct 1
93 °FSunny.14 mph47%29.71 "Hg10 mi
1:00 PM93 °FSunny.9 mph47%29.74 "Hg10 mi
12:00 PM95 °FSunny.9 mph41%29.74 "Hg10 mi
11:00 AM95 °FSunny.9 mph41%29.74 "Hg10 mi
10:00 AM91 °FSunny.7 mph52%29.77 "Hg10 mi
9:00 AM90 °FSunny.2 mph55%29.77 "Hg10 mi
8:00 AM86 °FSunny.2 mph62%29.77 "Hg10 mi
7:00 AM81 °FSunny.5 mph70%29.74 "Hg10 mi
6:00 AM81 °FClear.No wind70%29.74 "Hg10 mi
5:00 AM82 °FClear.5 mph70%29.71 "Hg10 mi
4:00 AM82 °FClear.5 mph70%29.74 "Hg10 mi
3:00 AM84 °FClear.3 mph66%29.74 "Hg10 mi
2:00 AM84 °FClear.No wind66%29.74 "Hg10 mi
1:00 AM86 °FClear.3 mph66%29.74 "Hg10 mi
12:00 AM86 °FClear.9 mph66%29.74 "Hg10 mi
11:00 PM
Sep 30
86 °FClear.8 mph70%29.77 "Hg10 mi
10:00 PM88 °FClear.7 mph66%29.77 "Hg10 mi
9:00 PM88 °FClear.9 mph66%29.77 "Hg10 mi
8:00 PM88 °FClear.12 mph66%29.74 "Hg10 mi
7:00 PM88 °FClear.14 mph66%29.71 "Hg10 mi
6:00 PM91 °FSunny.16 mph59%29.71 "Hg10 mi
5:00 PM93 °FSunny.16 mph53%29.68 "Hg10 mi
4:00 PM95 °FSunny.16 mph50%29.68 "Hg10 mi
3:00 PM95 °FSunny.12 mph53%29.68 "Hg10 mi
Weather by CustomWeather, © 2014

See weather overviewHow to use our weather pages